Regional Weather Roundup
Issued by NWS

Home | Current Version | Previous Version | Text Only | Print | Product List | Glossary On
Versions: 1 2 3 4 5 6 7 8 9 10 11 12 13 14 15 16 17 18 19 20 21 22 23 24 25 26 27 28 29 30 31 32 33 34 35 36 37 38 39 40 41 42 43 44 45 46 47 48 49 50
815
ASUS44 KFWD 011601
RWRTX
NORTH TEXAS HOURLY WEATHER ROUNDUP
NATIONAL WEATHER SERVICE FORT WORTH TX
1100 AM CDT SUN MAY 01 2016

NOTE: "FAIR" INDICATES FEW OR NO CLOUDS BELOW 12,000 FEET WITH NO
SIGNIFICANT WEATHER AND/OR OBSTRUCTIONS TO VISIBILITY.

TXZ118-119-011700-
DALLAS/FORT WORTH METROPLEX

CITY           SKY/WX    TMP DP  RH WIND       PRES   REMARKS
DFW AIRPORT    SUNNY     67  47  48 N20G28    30.02S
DALLAS LOVE    SUNNY     67  47  48 N14       30.02R
FTW MEACHAM    SUNNY     65  46  50 N17       30.04R
DAL-EXECUTIVE  SUNNY     67  50  54 N14       30.01R
FTW-ALLIANCE   SUNNY     63  45  51 N17       30.04R
FTW-NAS-JRB    SUNNY     65  45  48 NE15      30.05R
ARLINGTON      SUNNY     68  49  50 N21       30.02R
GRAND PRAIRIE  SUNNY     64  46  52 N16G23    30.04R
ADDISON        SUNNY     63  50  63 N15G22    30.03S
MESQUITE       SUNNY     64  50  59 N18       30.01R
LANCASTER      SUNNY     66  47  50 N15G21    30.01S
$$

TXZ091>094-102>105-117-120-121-131>134-011700-
NORTH CENTRAL TEXAS

CITY           SKY/WX    TMP DP  RH WIND       PRES   REMARKS
DECATUR        SUNNY     60  43  52 N7        30.06R
DENTON         LGT RAIN  62  46  55 N13       30.04S
MCKINNEY       SUNNY     65  48  54 N13       30.03R
ROCKWALL       SUNNY     65  51  59 N15G24    30.01R
TERRELL        SUNNY     68  50  52 N16G23    30.01R
WAXAHACHIE     SUNNY     66  52  60 N13       30.02R
GRANBURY       SUNNY     65  46  51 N14       30.06R
$$

TXZ083>090-098>101-113>116-127>130-139>142-154-155-011700-
WESTERN NORTH TEXAS

CITY           SKY/WX    TMP DP  RH WIND       PRES   REMARKS
WICHITA FALLS  SUNNY     59  40  49 N20       30.09R
WF-KICKAPOO    SUNNY     60  38  43 N17       30.10S
ABILENE        CLOUDY    56  38  50 N14       30.11R
ABILENE-DYESS  CLOUDY    57  38  50 N10       30.10R
MINERAL WELLS  SUNNY     62  43  49 N13       30.06R
STEPHENVILLE   SUNNY     62  44  50 N12G22    30.09R
COMANCHE       CLOUDY    60  47  60 N16G23    30.06R
BROWNWOOD      CLOUDY    61  45  55 N16G22    30.05S
COLEMAN        PTSUNNY   61  41  47 N16G25    30.06R
$$

TXZ143>147-156>162-174-175-011700-
CENTRAL TEXAS

CITY           SKY/WX    TMP DP  RH WIND       PRES   REMARKS
WACO           MOSUNNY   70  51  51 NE18      30.00R
WACO-MCGREGOR  MOSUNNY   69  55  60 N18       30.00R
HILLSBORO      SUNNY     67  53  60 N15G21    30.01R
CORSICANA      SUNNY     72  53  51 N13G24    29.99R
MEXIA          SUNNY     70  56  62 N9G20     29.96S
HEARNE         PTSUNNY   74  60  61 N10       29.95S
TEMPLE         CLOUDY    67  59  75 N10G21    29.99R
KILLEEN        PTSUNNY   66  57  72 NE20      29.97S
KILLEEN-SKYLRK CLOUDY    66  59  78 NE18      29.99R
HAMILTON       CLOUDY    64  51  62 NE16      30.04R
$$

TXZ095>097-106>112-122>126-135>138-148>153-164>167-011700-
EAST TEXAS

CITY           SKY/WX    TMP DP  RH WIND       PRES   REMARKS
PARIS          SUNNY     66  48  52 N10G16    30.01R
MINEOLA        SUNNY     72  52  49 NE6       30.00R
TYLER          SUNNY     74  59  59 NE12      29.96R
LONGVIEW       CLOUDY    70  63  78 NE8       29.95R
PALESTINE      SUNNY     74  61  63 N10       29.96R
JACKSONVILLE   MOSUNNY   72  63  74 NE9       29.97R
NACOGDOCHES    SUNNY     77  66  69 NE7       29.91S
LUFKIN         MOSUNNY   79  67  66 E7        29.90R
$$

SUPPLEMENTAL OBSERVATIONS (CENTRAL)

CITY           SKY/WX    TMP DP  RH WIND       PRES   REMARKS
$$

SUPPLEMENTAL OBSERVATIONS (WEST)

CITY           SKY/WX    TMP DP  RH WIND       PRES   REMARKS
$$

SUPPLEMENTAL OBSERVATIONS (EAST)

CITY           SKY/WX    TMP DP  RH WIND       PRES   REMARKS
$$

SUPPLEMENTAL OBSERVATIONS ARE A COLLECTION OF AUTOMATED INSTRUMENTS
THAT ARE MAINTAINED BY A VARIETY OF FEDERAL AND STATE AGENCIES.
CERTAIN ELEMENTS...SUCH AS HUMIDITY VALUES AND SUSTAINED WIND
SPEEDS...MAY BE APPROXIMATED.





USA.gov is the U.S. government's official web portal to all federal, state and local government web resources and services.